Starlink 30880

operational
NORAD ID: 58232 Int'l Des: 2023-171 Owner: SPXS Country: US Constellation: starlink
LEOCIRCULAR

Starlink 30880について

説明を読み込み中...

リアルタイム位置

3D地球を読み込み中...

次回通過

高度履歴

Altitude vs Time

uPlot chart will show altitude changes over time

軌道要素

1 58232U 23171C 25351.32212191 .00001798 00000-0 14808-3 0 9990
2 58232 43.0049 13.7038 0001398 282.5096 77.5589 15.02544714117336
Epoch: Dec 17, 2025 • Age: 11 hours

現在のステータス

高度 571.5 km
速度 7.58 km/s
衛星直下点 -43.16°S, 83.53°W
打ち上げ日 Nov 8, 2023
運用期間 2.1 years
タイプ internet

技術仕様

分類 Payload
質量 730.00 kg
乾燥質量 700.00 kg
総質量 730.00 kg
長さ 0.30 m
直径 4.10 m
スパン 29.00 m
形状 Box + pan
製造者 SPXS
バスタイプ Starlink V2M
フェーズステータス In Orbit
所有者/国 SPXS/US

大規模コンステレーション

Loading constellations...